Simultaneous Nadir Overpasses (SNOs) Predictions

Prediction of SNOs between NOAA-20 and AQUA Satellite Orbit:

Table of predicted SNOs for the next 14.0 days since TLE Epoch: 12/5/2025
Index Date (NOAA-20) Time (NOAA-20) Lat,Lon (NOAA-20) SZA (NOAA-20 ) Date (AQUA) Time (AQUA) Lat,Lon (AQUA) SZA (AQUA ) Distance(km) Time Diff (sec)
1 12/06/2025 21:51:31 -81.23, -29.91 72.03 12/06/2025 21:52:31 -81.23, -30.03 72.04 2.07 60
2 12/06/2025 22:42:16 81.23, 137.46 107.97 12/06/2025 22:41:48 81.23, 137.64 107.97 3.14 28
3 12/09/2025 07:22:29 -81.23,-172.55 71.76 12/09/2025 07:22:22 -81.23,-172.61 71.75 1.02 7
4 12/11/2025 16:02:43 81.23,-122.58 108.48 12/11/2025 16:02:54 81.24,-122.40 108.45 3.22 11
5 12/11/2025 16:53:08 -81.01, 52.31 72.59 12/11/2025 16:52:07 -81.31, 46.88 71.71 98.41 61
6 12/14/2025 00:42:57 -81.23, -72.63 71.33 12/14/2025 00:43:26 -81.23, -72.67 71.34 0.78 29
7 12/14/2025 01:33:41 81.22, 95.02 108.63 12/14/2025 01:32:43 81.22, 94.92 108.67 1.69 58
8 12/16/2025 09:23:11 81.23, -22.84 108.85 12/16/2025 09:23:56 81.22, -22.93 108.83 1.99 45
9 12/16/2025 10:13:55 -81.22, 144.94 71.22 12/16/2025 10:13:13 -81.22, 144.83 71.18 1.99 42
10 12/18/2025 18:03:25 -81.23, 27.06 71.04 12/18/2025 18:04:24 -81.22, 27.16 71.09 1.80 59



Historial Predications of SNOs between NOAA-20 and AQUA
